Location: Mountain View
(37.3861°N, 122.0839°W)
Time: 08:55:05
(UTC-07:00)

Amateur Radio Satellites - All Passes

Search period start: 23 August 2017 08:25
Search period end: 24 August 2017 08:25
Location: Mountain View, 37.3861°N, 122.0839°W

Satellite Date Start Highest point End Downlink Frequencies (MHz)
Time Altitude Azimuth
NO-84 23 Aug 08:27:28 08:30:32 89° 49° (NE) 08:33:50 435.350 FM
CUTE-I 23 Aug 08:29:42 08:34:12 29° 292° (WNW) 08:38:42 437.470
CUTE 1.7 + AOD 2 23 Aug 08:37:04 08:41:20 67° 284° (WNW) 08:45:35 437.475
STRAND 1 23 Aug 08:53:33 08:57:27 22° 265° (W) 09:01:23 437.568
Oscar 11 23 Aug 09:02:45 09:06:09 22° 95° (E) 09:09:33 .
UWE-3 23 Aug 09:03:10 09:07:26 68° 101° (E) 09:11:50 435.000/436.395/437.385
RS-15 23 Aug 09:06:12 09:12:43 16° 97° (E) 09:19:17 29.354- 29.394
PCSat 23 Aug 09:09:38 09:14:02 26° 253° (WSW) 09:18:26 145.827
Tancredo 1 23 Aug 09:09:49 09:12:27 30° 326° (NNW) 09:15:05 437.200
SO-50 23 Aug 09:14:22 09:17:40 20° 250° (WSW) 09:21:00 436.795
CUBEBUG 2 23 Aug 09:16:29 09:20:32 46° 286° (WNW) 09:24:42 437.445
FO-29 23 Aug 09:18:25 09:25:48 59° 73° (ENE) 09:32:30 435.910
SEEDS 23 Aug 09:19:53 09:23:44 34° 288° (WNW) 09:27:34 437.485
O/OREOS (USA 219) 23 Aug 09:27:08 09:31:35 78° 109° (ESE) 09:36:04 437.305
ISS 23 Aug 09:29:05 09:32:21 85° 140° (SE) 09:35:39 437.550
nSIGHT-1 23 Aug 09:33:51 09:37:07 79° 320° (NW) 09:40:23 .
ZACube-1 23 Aug 09:36:37 09:40:58 89° 109° (ESE) 09:45:23 437.345
UNISAT 6 23 Aug 09:49:33 09:53:34 38° 72° (ENE) 09:57:32 437.425
Max Valier Satellite 23 Aug 09:50:41 09:51:37 11° 92° (E) 09:52:33 145.860
HO-68 23 Aug 09:55:47 10:01:36 28° 298° (WNW) 10:07:25 435.675
AO-73 23 Aug 09:56:10 10:00:27 61° 285° (WNW) 10:04:48 145.935
AAUSAT CUBESAT 2 23 Aug 09:57:08 10:00:44 28° 289° (WNW) 10:04:18 437.432
XW-2A 23 Aug 09:58:09 09:58:49 10° 293° (WNW) 09:59:30 145.665 - 145.685
TIGRISAT 23 Aug 10:23:28 10:27:49 89° 59° (ENE) 10:32:05 435.000
EO-88 23 Aug 10:36:24 10:39:45 32° 98° (E) 10:43:04 145.990 - 145.960
DELFI C3 23 Aug 10:36:37 10:40:33 62° 101° (E) 10:44:27 145.870
Oscar 11 23 Aug 10:38:30 10:42:15 28° 289° (WNW) 10:45:58 .
PRISM 23 Aug 10:38:55 10:43:04 79° 256° (WSW) 10:47:16 437.425
JUGNU 23 Aug 10:55:56 10:58:41 13° 176° (S) 11:01:25 437.505
FO-29 23 Aug 11:05:02 11:10:59 25° 265° (W) 11:16:34 435.910
ISS 23 Aug 11:07:12 11:09:13 15° 336° (NNW) 11:11:14 437.550
RS-15 23 Aug 11:10:57 11:23:05 77° 115° (ESE) 11:35:24 29.354- 29.394
O/OREOS (USA 219) 23 Aug 11:11:08 11:11:33 10° 306° (NW) 11:11:59 437.305
nSIGHT-1 23 Aug 11:12:10 11:13:57 14° 338° (NNW) 11:15:42 .
M-CUBED/EXP-1 PRIME 23 Aug 11:16:04 11:20:21 44° 67° (ENE) 11:24:47 437.505
AIST 2D 23 Aug 11:18:12 11:21:26 38° 74° (ENE) 11:24:43 435.315
NANOSAT C BR1 23 Aug 11:21:27 11:24:11 17° 67° (ENE) 11:26:55 145.865
Max Valier Satellite 23 Aug 11:22:07 11:25:37 41° 286° (WNW) 11:29:07 145.860
UNISAT 6 23 Aug 11:27:47 11:30:24 16° 266° (W) 11:33:01 437.425
POLYITAN 1 23 Aug 11:28:15 11:31:33 23° 69° (ENE) 11:34:51 437.675
EO-79 23 Aug 11:42:40 11:46:26 33° 72° (ENE) 11:50:13 145.935-145.965
QB50P2 23 Aug 11:42:54 11:46:47 37° 72° (ENE) 11:50:39 145.880/145.840
LO-87 23 Aug 11:56:54 12:00:15 40° 99° (E) 12:03:35 145.935 - 145.965
BUGSAT 1 23 Aug 12:01:01 12:01:50 10° 65° (ENE) 12:02:39 437.445
ESTCUBE 1 23 Aug 12:04:51 12:08:57 33° 97° (E) 12:13:01 437.505/2401.250
DUCHIFAT 1 23 Aug 12:08:49 12:12:52 53° 74° (ENE) 12:16:56 145.980
EO-88 23 Aug 12:11:09 12:13:05 14° 292° (WNW) 12:15:01 145.990 - 145.960
Oscar 19 23 Aug 12:34:58 12:37:54 15° 63° (ENE) 12:40:50 437.125/150
JUGNU 23 Aug 12:44:22 12:46:51 13° 186° (S) 12:49:18 437.505
M-CUBED/EXP-1 PRIME 23 Aug 12:51:52 12:54:54 18° 263° (W) 12:58:00 437.505
NANOSAT C BR1 23 Aug 12:55:46 12:59:36 35° 262° (W) 13:03:27 145.865
SRMSAT 23 Aug 13:01:39 13:03:40 12° 172° (S) 13:05:41 437.500
AO-85 23 Aug 13:03:13 13:05:51 16° 48° (NE) 13:08:36 145.980
POLYITAN 1 23 Aug 13:03:41 13:07:11 25° 264° (W) 13:10:41 437.675
BEESAT 3 23 Aug 13:06:33 13:09:41 22° 50° (NE) 13:12:47 437.485
EO-79 23 Aug 13:19:26 13:22:15 17° 266° (W) 13:25:05 145.935-145.965
QB50P2 23 Aug 13:20:08 13:22:41 16° 267° (W) 13:25:13 145.880/145.840
SPROUT 23 Aug 13:20:27 13:24:38 56° 101° (E) 13:28:48 437.525
RS-15 23 Aug 13:25:51 13:36:48 36° 320° (NW) 13:47:50 29.354- 29.394
BEESAT 2 23 Aug 13:27:56 13:29:57 13° 45° (NE) 13:31:58 435.950
DX 1 23 Aug 13:28:58 13:31:06 13° 93° (E) 13:33:13 434.975-435.025
LO-87 23 Aug 13:32:37 13:33:16 10° 293° (WNW) 13:33:55 145.935 - 145.965
BUGSAT 1 23 Aug 13:32:40 13:36:41 57° 259° (W) 13:40:41 437.445
VELOX 1 23 Aug 13:34:59 13:39:22 63° 101° (ESE) 13:43:43 145.980
ESTCUBE 1 23 Aug 13:42:06 13:45:31 21° 292° (WNW) 13:48:55 437.505/2401.250
DUCHIFAT 1 23 Aug 13:47:54 13:48:49 11° 269° (W) 13:49:44 145.980
50 SAT 23 Aug 13:48:57 13:51:55 29° 98° (E) 13:54:52 437.505
Tancredo 1 23 Aug 13:59:32 14:01:06 14° 25° (NNE) 14:02:40 437.200
Gurwin Techsat 1B 23 Aug 14:08:55 14:14:14 81° 75° (ENE) 14:19:34 435.225
Oscar 19 23 Aug 14:11:35 14:16:39 61° 259° (WSW) 14:21:47 437.125/150
ISS 23 Aug 14:24:05 14:24:42 10° 17° (NNE) 14:25:20 437.550
nSIGHT-1 23 Aug 14:28:14 14:29:14 11° 19° (NNE) 14:30:15 .
YUBILEINY 23 Aug 14:30:18 14:34:53 15° 78° (ENE) 14:39:28 435.215
UKube-1 23 Aug 14:35:22 14:39:34 51° 100° (E) 14:43:45 .
AO-7 23 Aug 14:37:19 14:44:36 35° 61° (ENE) 14:51:51 .
AO-85 23 Aug 14:42:13 14:46:32 59° 243° (WSW) 14:51:12 145.980
BEESAT 3 23 Aug 14:43:47 14:47:15 29° 247° (WSW) 14:50:39 437.485
SRMSAT 23 Aug 14:49:11 14:51:58 14° 182° (S) 14:54:46 437.500
SPROUT 23 Aug 14:58:32 15:00:01 12° 295° (WNW) 15:01:29 437.525
DX 1 23 Aug 15:03:20 15:07:30 46° 287° (WNW) 15:11:38 434.975-435.025
BEESAT 2 23 Aug 15:04:05 15:08:05 60° 242° (WSW) 15:12:00 435.950
VELOX 1 23 Aug 15:13:53 15:15:14 11° 297° (WNW) 15:16:34 145.980
ITUPSAT 1 23 Aug 15:14:13 15:16:39 14° 92° (E) 15:19:05 437.325
50 SAT 23 Aug 15:22:45 15:24:16 13° 292° (WNW) 15:25:46 437.505
MOZHAYETS 4 23 Aug 15:31:32 15:34:49 19° 94° (E) 15:38:05
Tancredo 1 23 Aug 15:33:41 15:36:34 72° 222° (SW) 15:39:25 437.200
ITAMSAT 1 23 Aug 15:37:39 15:42:45 60° 73° (ENE) 15:47:52 435.822/435.867
RS-15 23 Aug 15:47:21 15:54:43 17° 353° (N) 16:01:59 29.354- 29.394
Gurwin Techsat 1B 23 Aug 15:53:39 15:54:44 11° 270° (W) 15:55:48 435.225
ISS 23 Aug 15:58:44 16:01:53 42° 36° (NE) 16:05:00 437.550
nSIGHT-1 23 Aug 16:03:03 16:06:14 50° 37° (NE) 16:09:23 .
UKube-1 23 Aug 16:13:06 16:15:07 13° 296° (WNW) 16:17:08 .
BEESAT 23 Aug 16:13:32 16:18:17 63° 101° (ESE) 16:23:00 436.000
YUBILEINY 23 Aug 16:21:32 16:30:20 89° 100° (E) 16:39:09 435.215
AO-7 23 Aug 16:28:55 16:37:00 52° 258° (WSW) 16:45:07 .
ITUPSAT 1 23 Aug 16:50:06 16:54:46 54° 287° (WNW) 16:59:25 437.325
KKS-1 23 Aug 16:58:21 17:00:02 12° 92° (E) 17:01:41 437.445
MOZHAYETS 4 23 Aug 17:07:48 17:12:03 37° 288° (WNW) 17:16:19
DOVE 4 23 Aug 17:12:24 17:17:16 39° 72° (ENE) 17:22:02 437.250
ITAMSAT 1 23 Aug 17:19:46 17:22:34 15° 268° (W) 17:25:23 435.822/435.867
XW-2B 23 Aug 17:26:39 17:28:12 12° 67° (ENE) 17:29:45 145.730 - 145.750
CUBESAT XI-V 23 Aug 17:35:37 17:40:22 84° 105° (ESE) 17:45:03 437.345
ISS 23 Aug 17:35:58 17:38:06 16° 231° (SW) 17:40:12 437.550
nSIGHT-1 23 Aug 17:40:36 17:42:17 14° 232° (SW) 17:43:58 .
XW-2C 23 Aug 17:44:28 17:47:18 21° 70° (ENE) 17:50:09 145.795 - 145.815
BEESAT 23 Aug 17:53:17 17:55:29 13° 297° (WNW) 17:57:41 436.000
XW-2F 23 Aug 17:53:38 17:56:44 25° 71° (ENE) 17:59:51 145.980 - 146.000
O/OREOS (USA 219) 23 Aug 18:02:39 18:03:38 11° 54° (NE) 18:04:38 437.305
RS-15 23 Aug 18:04:02 18:13:37 26° 30° (NNE) 18:22:49 29.354- 29.394
CUTE-I 23 Aug 18:09:12 18:14:14 44° 71° (ENE) 18:19:17 437.470
KAITUO 1B 23 Aug 18:12:58 18:16:21 34° 73° (ENE) 18:19:45 145.475/437.950
YUBILEINY 23 Aug 18:22:55 18:28:19 17° 295° (WNW) 18:33:43 435.215
KKS-1 23 Aug 18:32:33 18:36:52 54° 286° (WNW) 18:41:10 437.445
HO-68 23 Aug 18:34:10 18:40:20 33° 64° (ENE) 18:46:31 435.675
NUDT-PHONESAT 23 Aug 18:40:28 18:44:07 81° 77° (ENE) 18:47:49 437.300
LilacSat-2 23 Aug 18:47:01 18:50:42 52° 260° (W) 18:54:26 437.200
XW-2D 23 Aug 18:47:07 18:50:47 54° 260° (W) 18:54:30 145.860 - 145.880
DOVE 4 23 Aug 18:50:49 18:54:59 23° 266° (W) 18:59:03 437.250
XW-2B 23 Aug 18:58:27 19:01:59 40° 262° (W) 19:05:33 145.730 - 145.750
STARS 23 Aug 19:01:55 19:06:14 63° 286° (WNW) 19:10:31 437.465
AAUSAT CUBESAT 2 23 Aug 19:12:14 19:13:20 11° 65° (ENE) 19:14:26 437.432
XW-2C 23 Aug 19:18:22 19:21:21 22° 265° (W) 19:24:21 145.795 - 145.815
CUTE 1.7 + AOD 2 23 Aug 19:27:09 19:31:19 63° 75° (ENE) 19:35:32 437.475
STRAND 1 23 Aug 19:27:12 19:30:08 15° 92° (E) 19:33:04 437.568
XW-2F 23 Aug 19:28:12 19:30:48 18° 266° (W) 19:33:27 145.980 - 146.000
O/OREOS (USA 219) 23 Aug 19:39:02 19:43:36 78° 250° (WSW) 19:48:09 437.305
KAITUO 1B 23 Aug 19:48:42 19:50:27 13° 268° (W) 19:52:12 145.475/437.950
CUTE-I 23 Aug 19:50:26 19:54:26 21° 266° (W) 19:58:26 437.470
Oscar 11 23 Aug 19:56:42 19:58:53 14° 66° (ENE) 20:01:06 .
UWE-3 23 Aug 19:58:13 20:02:07 40° 73° (ENE) 20:06:00 435.000/436.395/437.385
SEEDS 23 Aug 20:08:36 20:12:47 67° 260° (W) 20:17:00 437.485
CUBEBUG 2 23 Aug 20:12:07 20:16:23 75° 259° (W) 20:20:34 437.445
RS-15 23 Aug 20:16:32 20:28:36 75° 57° (ENE) 20:39:58 29.354- 29.394
HO-68 23 Aug 20:21:03 20:27:49 45° 260° (W) 20:34:37 435.675
XW-2A 23 Aug 20:24:45 20:27:53 39° 261° (W) 20:31:03 145.665 - 145.685
ZACube-1 23 Aug 20:30:20 20:34:20 50° 74° (ENE) 20:38:20 437.345
AAUSAT CUBESAT 2 23 Aug 20:44:09 20:48:15 58° 260° (W) 20:52:23 437.432
AO-73 23 Aug 20:49:21 20:53:28 76° 78° (ENE) 20:57:35 145.935
STRAND 1 23 Aug 21:04:38 21:09:37 55° 287° (WNW) 21:14:35 437.568
EO-88 23 Aug 21:14:10 21:15:17 11° 66° (ENE) 21:16:24 145.990 - 145.960
DELFI C3 23 Aug 21:20:01 21:23:21 26° 71° (ENE) 21:26:42 145.870
Oscar 11 23 Aug 21:30:26 21:34:34 47° 261° (W) 21:38:46 .
UWE-3 23 Aug 21:36:31 21:38:44 14° 267° (W) 21:40:57 435.000/436.395/437.385
SO-50 23 Aug 21:46:28 21:49:45 20° 111° (ESE) 21:53:02 436.795
Max Valier Satellite 23 Aug 21:58:24 22:01:58 57° 75° (ENE) 22:05:34 145.860
PCSat 23 Aug 22:05:03 22:10:17 54° 113° (ESE) 22:15:35 145.827
ZACube-1 23 Aug 22:09:44 22:10:53 11° 269° (W) 22:12:01 437.345
FO-29 23 Aug 22:15:58 22:21:15 53° 100° (E) 22:26:17 435.910
TIGRISAT 23 Aug 22:17:21 22:20:38 21° 95° (E) 22:23:58 435.000
PRISM 23 Aug 22:23:25 22:25:56 16° 94° (E) 22:28:26 437.425
RS-15 23 Aug 22:30:32 22:39:46 28° 258° (WSW) 22:48:41 29.354- 29.394
LO-87 23 Aug 22:32:26 22:34:05 13° 68° (ENE) 22:35:45 145.935 - 145.965
EO-88 23 Aug 22:45:06 22:48:32 40° 261° (W) 22:52:00 145.990 - 145.960
DELFI C3 23 Aug 22:55:03 22:58:04 20° 265° (W) 23:01:05 145.870
ESTCUBE 1 23 Aug 23:02:35 23:06:12 24° 69° (ENE) 23:09:51 437.505/2401.250
UNISAT 6 23 Aug 23:19:00 23:23:19 68° 284° (WNW) 23:27:43 437.425
SO-50 23 Aug 23:25:42 23:29:55 38° 306° (NW) 23:34:09 436.795
NO-84 23 Aug 23:43:16 23:45:38 21° 128° (SE) 23:47:54 435.350 FM
PCSat 23 Aug 23:49:56 23:54:01 21° 310° (NW) 23:58:07 145.827
TIGRISAT 23 Aug 23:53:31 23:57:19 30° 289° (WNW) 00:01:11 435.000
PRISM 23 Aug 23:57:33 00:01:18 35° 288° (WNW) 00:05:02 437.425
FO-29 24 Aug 00:02:30 00:05:49 17° 298° (WNW) 00:09:03 435.910
LO-87 24 Aug 00:03:55 00:07:11 33° 262° (W) 00:10:28 145.935 - 145.965
SPROUT 24 Aug 00:11:43 00:15:30 32° 71° (ENE) 00:19:17 437.525
AIST 2D 24 Aug 00:17:45 00:21:19 66° 101° (E) 00:24:50 435.315
VELOX 1 24 Aug 00:29:54 00:34:07 43° 72° (ENE) 00:38:20 145.980
M-CUBED/EXP-1 PRIME 24 Aug 00:31:17 00:35:16 40° 103° (ESE) 00:38:56 437.505
ESTCUBE 1 24 Aug 00:38:58 00:42:50 28° 264° (W) 00:46:46 437.505/2401.250
NANOSAT C BR1 24 Aug 00:41:34 00:45:30 39° 99° (E) 00:49:26 145.865
POLYITAN 1 24 Aug 00:49:27 00:53:36 55° 101° (E) 00:57:45 437.675
EO-79 24 Aug 01:04:12 01:08:26 85° 105° (ESE) 01:12:38 145.935-145.965
QB50P2 24 Aug 01:04:47 01:09:01 85° 284° (WNW) 01:13:14 145.880/145.840
BUGSAT 1 24 Aug 01:16:45 01:19:53 21° 96° (E) 01:23:00 437.445
NO-84 24 Aug 01:20:30 01:22:55 23° 322° (NW) 01:25:16 435.350 FM
UKube-1 24 Aug 01:27:44 01:31:36 33° 71° (ENE) 01:35:29 .
DUCHIFAT 1 24 Aug 01:29:59 01:34:07 60° 285° (WNW) 01:38:14 145.980
SPROUT 24 Aug 01:48:26 01:51:26 19° 266° (W) 01:54:26 437.525
50 SAT 24 Aug 01:49:37 01:52:56 49° 260° (W) 01:56:15 437.505
DX 1 24 Aug 01:56:10 02:00:32 72° 258° (WSW) 02:04:55 434.975-435.025
M-CUBED/EXP-1 PRIME 24 Aug 02:06:41 02:09:15 16° 300° (WNW) 02:11:43 437.505
VELOX 1 24 Aug 02:08:04 02:10:43 15° 267° (W) 02:13:22 145.980
NANOSAT C BR1 24 Aug 02:18:20 02:20:52 16° 293° (WNW) 02:23:23 145.865
ITUPSAT 1 24 Aug 02:19:30 02:21:55 14° 63° (ENE) 02:24:19 437.325
Oscar 19 24 Aug 02:25:05 02:30:12 55° 101° (E) 02:35:17 437.125/150
POLYITAN 1 24 Aug 02:27:25 02:28:52 12° 295° (WNW) 02:30:21 437.675
Gurwin Techsat 1B 24 Aug 02:27:27 02:32:22 37° 98° (E) 02:37:15 435.225
MOZHAYETS 4 24 Aug 02:32:17 02:34:50 15° 65° (ENE) 02:37:23
YUBILEINY 24 Aug 02:34:40 02:42:44 40° 75° (ENE) 02:50:43 435.215
BUGSAT 1 24 Aug 02:51:51 02:55:09 25° 290° (WNW) 02:58:29 437.445
UKube-1 24 Aug 03:04:36 03:07:40 19° 265° (W) 03:10:45 .
BEESAT 24 Aug 03:17:42 03:22:21 57° 73° (ENE) 03:27:01 436.000
ITAMSAT 1 24 Aug 03:53:08 03:57:19 24° 95° (E) 04:01:27 435.822/435.867
ITUPSAT 1 24 Aug 03:54:31 03:59:12 59° 259° (W) 04:03:54 437.325
Oscar 19 24 Aug 04:05:44 04:09:02 17° 296° (WNW) 04:12:20 437.125/150
MOZHAYETS 4 24 Aug 04:07:08 04:11:32 49° 260° (W) 04:15:58
Gurwin Techsat 1B 24 Aug 04:07:48 04:12:05 25° 293° (WNW) 04:16:21 435.225
BEESAT 3 24 Aug 04:30:28 04:34:26 70° 118° (ESE) 04:38:27 437.485
YUBILEINY 24 Aug 04:31:32 04:39:25 41° 273° (W) 04:47:19 435.215
AO-7 24 Aug 04:32:27 04:40:43 63° 104° (ESE) 04:48:53 .
CUBESAT XI-V 24 Aug 04:36:27 04:41:03 64° 75° (ENE) 04:45:41 437.345
BEESAT 2 24 Aug 04:53:08 04:56:47 36° 114° (ESE) 05:00:30 435.950
AO-85 24 Aug 04:54:59 04:58:56 72° 118° (ESE) 05:02:50 145.980
BEESAT 24 Aug 04:58:18 05:00:26 13° 268° (W) 05:02:35 436.000
KKS-1 24 Aug 05:27:59 05:32:27 78° 256° (WSW) 05:36:56 437.445
ITAMSAT 1 24 Aug 05:32:07 05:36:49 36° 291° (WNW) 05:41:29 435.822/435.867
STARS 24 Aug 05:55:56 06:00:20 86° 79° (E) 06:04:45 437.465
BEESAT 3 24 Aug 06:10:52 06:12:27 12° 315° (NW) 06:14:02 437.485
CUBESAT XI-V 24 Aug 06:17:28 06:18:48 11° 270° (W) 06:20:09 437.345
SO-50 24 Aug 06:19:36 06:21:51 13° 43° (NE) 06:24:06 436.795
XW-2D 24 Aug 06:22:20 06:24:54 17° 94° (E) 06:27:28 145.860 - 145.880
LilacSat-2 24 Aug 06:22:50 06:25:33 18° 94° (E) 06:28:16 437.200
AO-7 24 Aug 06:26:09 06:32:52 29° 302° (WNW) 06:39:35 .
CUTE-I 24 Aug 06:29:01 06:32:53 20° 94° (E) 06:36:42 437.470
BEESAT 2 24 Aug 06:31:42 06:34:38 19° 311° (NW) 06:37:36 435.950
XW-2B 24 Aug 06:33:06 06:36:10 22° 95° (E) 06:39:12 145.730 - 145.750
AO-85 24 Aug 06:38:59 06:39:47 10° 316° (NW) 06:40:35 145.980
STRAND 1 24 Aug 06:41:06 06:44:38 19° 65° (ENE) 06:48:08 437.568
DOVE 4 24 Aug 06:51:03 06:55:26 61° 285° (WNW) 06:59:36 437.250
XW-2C 24 Aug 06:51:55 06:55:34 39° 98° (E) 06:59:11 145.795 - 145.815
PCSat 24 Aug 06:55:09 06:59:53 29° 53° (NE) 07:04:34 145.827
XW-2F 24 Aug 07:00:48 07:04:32 48° 100° (E) 07:08:14 145.980 - 146.000
CUTE 1.7 + AOD 2 24 Aug 07:15:43 07:17:42 13° 92° (E) 07:19:40 437.475
KAITUO 1B 24 Aug 07:19:21 07:23:09 68° 101° (E) 07:26:55 145.475/437.950
NUDT-PHONESAT 24 Aug 07:46:19 07:49:58 52° 285° (WNW) 07:53:38 437.300
XW-2A 24 Aug 07:49:35 07:51:05 12° 93° (E) 07:52:35 145.665 - 145.685
HO-68 24 Aug 07:50:37 07:57:18 40° 99° (E) 08:03:56 435.675
NO-84 24 Aug 07:54:11 07:57:12 63° 45° (NE) 08:00:25 435.350 FM
SEEDS 24 Aug 07:54:52 07:58:15 23° 95° (E) 08:01:36 437.485
XW-2D 24 Aug 07:55:46 07:59:06 28° 288° (WNW) 08:02:24 145.860 - 145.880
LilacSat-2 24 Aug 07:56:30 07:59:48 27° 289° (WNW) 08:03:06 437.200
Tancredo 1 24 Aug 07:58:01 08:00:54 73° 139° (SE) 08:03:48 437.200
SO-50 24 Aug 07:58:16 08:02:51 79° 241° (WSW) 08:07:28 436.795
CUBEBUG 2 24 Aug 08:04:55 08:08:26 25° 96° (E) 08:12:02 437.445
XW-2B 24 Aug 08:07:13 08:10:13 22° 290° (WNW) 08:13:12 145.730 - 145.750
CUTE-I 24 Aug 08:08:03 08:13:06 45° 289° (WNW) 08:18:07 437.470
O/OREOS (USA 219) 24 Aug 08:12:09 08:14:41 15° 99° (E) 08:17:14 437.305
